Wetterdaten: Dienstag, 08.04.2014
Datum Zeit Temperatur Luftfeuchte Luftdruck Regen Wind Richtung Richtung Taupunkt Windchill Windben
08.04.2014 00:00 8,6 C 79 % 1017,9 hPa 0,0 l/m 0,0 km/h (0 Bft) SW 225 5,2 C 0,0 C 0,0 km/h (0 Bft)
08.04.2014 00:05 8,5 C 79 % 1017,9 hPa 0,0 l/m 0,0 km/h (0 Bft) SW 225 5,1 C 0,0 C 0,0 km/h (0 Bft)
08.04.2014 00:10 8,5 C 79 % 1018,3 hPa 0,0 l/m 0,0 km/h (0 Bft) SW 225 5,1 C 0,0 C 0,0 km/h (0 Bft)
08.04.2014 00:15 8,2 C 79 % 1018,3 hPa 0,0 l/m 0,0 km/h (0 Bft) SW 225 4,8 C 0,0 C 0,0 km/h (0 Bft)
08.04.2014 00:20 8,2 C 79 % 1018,3 hPa 0,0 l/m 0,0 km/h (0 Bft) SW 225 4,8 C 0,0 C 0,0 km/h (0 Bft)
08.04.2014 00:25 8,4 C 79 % 1018,3 hPa 0,0 l/m 0,0 km/h (0 Bft) SW 225 5,0 C 0,0 C 0,0 km/h (0 Bft)
08.04.2014 00:30 8,2 C 79 % 1018,2 hPa 0,0 l/m 0,0 km/h (0 Bft) SW 225 4,8 C 0,0 C 0,0 km/h (0 Bft)
08.04.2014 00:35 8,1 C 79 % 1018,2 hPa 0,0 l/m 0,0 km/h (0 Bft) SW 225 4,7 C 0,0 C 0,0 km/h (0 Bft)
08.04.2014 00:40 8,1 C 80 % 1018,2 hPa 0,0 l/m 0,0 km/h (0 Bft) SW 225 4,9 C 0,0 C 0,0 km/h (0 Bft)
08.04.2014 00:45 7,9 C 80 % 1018,2 hPa 0,0 l/m 0,0 km/h (0 Bft) SW 225 4,7 C 0,0 C 0,0 km/h (0 Bft)
08.04.2014 00:50 8,3 C 81 % 1017,7 hPa 0,0 l/m 0,0 km/h (0 Bft) SW 225 5,2 C 0,0 C 0,0 km/h (0 Bft)
08.04.2014 00:55 8,2 C 81 % 1017,7 hPa 0,0 l/m 0,0 km/h (0 Bft) SW 225 5,1 C 0,0 C 0,0 km/h (0 Bft)
08.04.2014 01:00 8,0 C 80 % 1017,7 hPa 0,0 l/m 0,0 km/h (0 Bft) SW 225 4,8 C 0,0 C 0,0 km/h (0 Bft)
08.04.2014 01:05 8,3 C 81 % 1017,7 hPa 0,0 l/m 0,0 km/h (0 Bft) SW 225 5,2 C 0,0 C 0,0 km/h (0 Bft)
08.04.2014 01:10 8,3 C 81 % 1017,7 hPa 0,0 l/m 0,0 km/h (0 Bft) SW 225 5,2 C 0,0 C 0,0 km/h (0 Bft)
08.04.2014 01:15 7,9 C 80 % 1017,7 hPa 0,0 l/m 0,0 km/h (0 Bft) SW 225 4,7 C 0,0 C 0,0 km/h (0 Bft)
08.04.2014 01:20 8,3 C 81 % 1017,7 hPa 0,0 l/m 0,0 km/h (0 Bft) SW 225 5,2 C 0,0 C 0,0 km/h (0 Bft)
08.04.2014 01:25 7,8 C 80 % 1017,7 hPa 0,0 l/m 0,0 km/h (0 Bft) SW 225 4,6 C 0,0 C 0,0 km/h (0 Bft)
08.04.2014 01:30 7,5 C 80 % 1017,6 hPa 0,0 l/m 0,0 km/h (0 Bft) SW 225 4,3 C 0,0 C 0,0 km/h (0 Bft)
08.04.2014 01:35 7,5 C 80 % 1017,6 hPa 0,0 l/m 0,0 km/h (0 Bft) SW 225 4,3 C 0,0 C 0,0 km/h (0 Bft)
08.04.2014 01:40 7,3 C 81 % 1017,6 hPa 0,0 l/m 0,0 km/h (0 Bft) SW 225 4,3 C 0,0 C 0,0 km/h (0 Bft)
08.04.2014 01:45 7,1 C 80 % 1017,6 hPa 0,0 l/m 0,0 km/h (0 Bft) SW 225 3,9 C 0,0 C 0,0 km/h (0 Bft)
08.04.2014 01:50 7,4 C 82 % 1017,5 hPa 0,0 l/m 0,0 km/h (0 Bft) SW 225 4,5 C 0,0 C 0,0 km/h (0 Bft)
08.04.2014 01:55 7,4 C 82 % 1017,5 hPa 0,0 l/m 0,0 km/h (0 Bft) SW 225 4,5 C 0,0 C 0,0 km/h (0 Bft)
08.04.2014 02:00 7,4 C 83 % 1017,5 hPa 0,0 l/m 0,0 km/h (0 Bft) SW 225 4,7 C 0,0 C 0,0 km/h (0 Bft)
08.04.2014 02:05 7,3 C 82 % 1017,5 hPa 0,0 l/m 0,0 km/h (0 Bft) SW 225 4,4 C 0,0 C 0,0 km/h (0 Bft)
08.04.2014 02:10 7,4 C 83 % 1017,6 hPa 0,0 l/m 0,0 km/h (0 Bft) SW 225 4,7 C 0,0 C 0,0 km/h (0 Bft)
08.04.2014 02:15 7,6 C 83 % 1017,6 hPa 0,0 l/m 0,0 km/h (0 Bft) SW 225 4,9 C 0,0 C 0,0 km/h (0 Bft)
08.04.2014 02:20 7,3 C 82 % 1017,6 hPa 0,0 l/m 0,0 km/h (0 Bft) SW 225 4,4 C 0,0 C 0,0 km/h (0 Bft)
08.04.2014 02:25 7,2 C 82 % 1017,6 hPa 0,0 l/m 0,0 km/h (0 Bft) SW 225 4,3 C 0,0 C 0,0 km/h (0 Bft)
08.04.2014 02:30 7,3 C 82 % 1017,5 hPa 0,0 l/m 0,0 km/h (0 Bft) SW 225 4,4 C 0,0 C 0,0 km/h (0 Bft)
08.04.2014 02:35 7,3 C 82 % 1017,5 hPa 0,0 l/m 0,0 km/h (0 Bft) SW 225 4,4 C 0,0 C 0,0 km/h (0 Bft)
08.04.2014 02:40 7,3 C 81 % 1017,5 hPa 0,0 l/m 0,0 km/h (0 Bft) SW 225 4,3 C 0,0 C 0,0 km/h (0 Bft)
08.04.2014 02:45 7,6 C 81 % 1017,5 hPa 0,0 l/m 0,0 km/h (0 Bft) SW 225 4,6 C 0,0 C 0,0 km/h (0 Bft)
08.04.2014 02:50 7,4 C 81 % 1017,6 hPa 0,0 l/m 0,0 km/h (0 Bft) SW 225 4,4 C 0,0 C 0,0 km/h (0 Bft)
08.04.2014 02:55 7,3 C 81 % 1017,6 hPa 0,0 l/m 0,0 km/h (0 Bft) SW 225 4,3 C 0,0 C 0,0 km/h (0 Bft)
08.04.2014 03:00 7,4 C 81 % 1017,6 hPa 0,0 l/m 0,0 km/h (0 Bft) SW 225 4,4 C 0,0 C 0,0 km/h (0 Bft)
08.04.2014 03:05 7,3 C 81 % 1017,6 hPa 0,0 l/m 0,0 km/h (0 Bft) SW 225 4,3 C 0,0 C 0,0 km/h (0 Bft)
08.04.2014 03:10 7,8 C 81 % 1017,4 hPa 0,0 l/m 0,0 km/h (0 Bft) SW 225 4,7 C 0,0 C 0,0 km/h (0 Bft)
08.04.2014 03:15 8,6 C 80 % 1017,4 hPa 0,0 l/m 0,0 km/h (0 Bft) SW 225 5,3 C 0,0 C 0,0 km/h (0 Bft)
08.04.2014 03:20 8,2 C 79 % 1017,4 hPa 0,0 l/m 0,0 km/h (0 Bft) SW 225 4,8 C 0,0 C 0,0 km/h (0 Bft)
08.04.2014 03:25 8,1 C 79 % 1017,4 hPa 0,0 l/m 0,0 km/h (0 Bft) SW 225 4,7 C 0,0 C 0,0 km/h (0 Bft)
08.04.2014 03:30 7,9 C 79 % 1017,2 hPa 0,0 l/m 0,0 km/h (0 Bft) SW 225 4,5 C 0,0 C 0,0 km/h (0 Bft)
08.04.2014 03:35 7,5 C 79 % 1017,2 hPa 0,0 l/m 0,0 km/h (0 Bft) SW 225 4,1 C 0,0 C 0,0 km/h (0 Bft)
08.04.2014 03:40 7,1 C 78 % 1017,2 hPa 0,0 l/m 0,0 km/h (0 Bft) SW 225 3,5 C 0,0 C 0,0 km/h (0 Bft)
08.04.2014 03:44 7,0 C 79 % 1017,2 hPa 0,0 l/m 0,0 km/h (0 Bft) SW 225 3,6 C 0,0 C 0,0 km/h (0 Bft)
08.04.2014 03:45 7,0 C 79 % 1017,2 hPa 0,0 l/m 0,0 km/h (0 Bft) SW 225 3,6 C 0,0 C 0,0 km/h (0 Bft)
08.04.2014 03:50 6,9 C 79 % 1017,2 hPa 0,0 l/m 0,0 km/h (0 Bft) SW 225 3,5 C 0,0 C 0,0 km/h (0 Bft)
08.04.2014 03:55 6,9 C 79 % 1017,2 hPa 0,0 l/m 0,0 km/h (0 Bft) SW 225 3,5 C 0,0 C 0,0 km/h (0 Bft)
08.04.2014 04:00 7,2 C 79 % 1017,2 hPa 0,0 l/m 0,0 km/h (0 Bft) SW 225 3,8 C 0,0 C 0,0 km/h (0 Bft)
08.04.2014 04:05 6,7 C 79 % 1017,2 hPa 0,0 l/m 0,0 km/h (0 Bft) SW 225 3,3 C 0,0 C 0,0 km/h (0 Bft)
08.04.2014 04:10 6,6 C 80 % 1016,9 hPa 0,0 l/m 0,0 km/h (0 Bft) SW 225 3,4 C 0,0 C 0,0 km/h (0 Bft)
08.04.2014 04:15 6,7 C 80 % 1016,9 hPa 0,0 l/m 0,0 km/h (0 Bft) SW 225 3,5 C 0,0 C 0,0 km/h (0 Bft)
08.04.2014 04:20 6,9 C 80 % 1016,9 hPa 0,0 l/m 0,0 km/h (0 Bft) SW 225 3,7 C 0,0 C 0,0 km/h (0 Bft)
08.04.2014 04:25 6,6 C 80 % 1016,9 hPa 0,0 l/m 0,0 km/h (0 Bft) SW 225 3,4 C 0,0 C 0,0 km/h (0 Bft)
08.04.2014 04:31 6,8 C 82 % 1016,9 hPa 0,0 l/m 0,0 km/h (0 Bft) SW 225 3,9 C 0,0 C 0,0 km/h (0 Bft)
08.04.2014 04:35 7,0 C 81 % 1016,9 hPa 0,0 l/m 0,0 km/h (0 Bft) SW 225 4,0 C 0,0 C 0,0 km/h (0 Bft)
08.04.2014 04:40 7,0 C 81 % 1016,9 hPa 0,0 l/m 0,0 km/h (0 Bft) SW 225 4,0 C 0,0 C 0,0 km/h (0 Bft)
08.04.2014 04:45 7,3 C 80 % 1016,9 hPa 0,0 l/m 0,0 km/h (0 Bft) SW 225 4,1 C 0,0 C 0,0 km/h (0 Bft)
08.04.2014 04:50 7,0 C 80 % 1016,9 hPa 0,0 l/m 0,0 km/h (0 Bft) SW 225 3,8 C 0,0 C 0,0 km/h (0 Bft)
08.04.2014 04:55 7,0 C 80 % 1016,9 hPa 0,0 l/m 0,0 km/h (0 Bft) SW 225 3,8 C 0,0 C 0,0 km/h (0 Bft)
08.04.2014 05:00 6,9 C 80 % 1016,9 hPa 0,0 l/m 0,0 km/h (0 Bft) SW 225 3,7 C 0,0 C 0,0 km/h (0 Bft)
08.04.2014 05:05 7,2 C 80 % 1016,9 hPa 0,0 l/m 0,0 km/h (0 Bft) SW 225 4,0 C 0,0 C 0,0 km/h (0 Bft)
08.04.2014 05:10 7,7 C 80 % 1016,9 hPa 0,0 l/m 0,0 km/h (0 Bft) SW 225 4,5 C 0,0 C 0,0 km/h (0 Bft)
08.04.2014 05:15 7,7 C 79 % 1016,9 hPa 0,0 l/m 0,0 km/h (0 Bft) SW 225 4,3 C 0,0 C 0,0 km/h (0 Bft)
08.04.2014 05:20 10,5 C 74 % 1016,9 hPa 0,0 l/m 0,0 km/h (0 Bft) SW 225 6,1 C 0,0 C 0,0 km/h (0 Bft)
08.04.2014 05:25 11,8 C 61 % 1016,9 hPa 0,0 l/m 0,0 km/h (0 Bft) SW 225 4,5 C 0,0 C 0,0 km/h (0 Bft)
08.04.2014 05:30 11,8 C 61 % 1017,1 hPa 0,0 l/m 0,0 km/h (0 Bft) SW 225 4,5 C 0,0 C 0,0 km/h (0 Bft)
08.04.2014 05:35 11,2 C 63 % 1017,1 hPa 0,0 l/m 0,0 km/h (0 Bft) SW 225 4,4 C 0,0 C 0,0 km/h (0 Bft)
08.04.2014 05:40 10,7 C 65 % 1017,1 hPa 0,0 l/m 0,0 km/h (0 Bft) SW 225 4,4 C 0,0 C 0,0 km/h (0 Bft)
08.04.2014 05:45 10,6 C 65 % 1017,1 hPa 0,0 l/m 0,0 km/h (0 Bft) SW 225 4,3 C 0,0 C 0,0 km/h (0 Bft)
08.04.2014 05:50 10,5 C 65 % 1017,0 hPa 0,0 l/m 0,0 km/h (0 Bft) SW 225 4,2 C 0,0 C 0,0 km/h (0 Bft)
08.04.2014 05:55 10,6 C 64 % 1017,0 hPa 0,0 l/m 0,0 km/h (0 Bft) SW 225 4,1 C 0,0 C 0,0 km/h (0 Bft)
08.04.2014 06:00 10,9 C 63 % 1017,0 hPa 0,0 l/m 0,0 km/h (0 Bft) SW 225 4,1 C 0,0 C 0,0 km/h (0 Bft)
08.04.2014 06:05 11,9 C 59 % 1017,0 hPa 0,0 l/m 0,0 km/h (0 Bft) SW 225 4,1 C 0,0 C 0,0 km/h (0 Bft)
08.04.2014 06:10 12,1 C 59 % 1017,3 hPa 0,0 l/m 0,0 km/h (0 Bft) SW 225 4,3 C 0,0 C 0,0 km/h (0 Bft)
08.04.2014 06:15 12,3 C 58 % 1017,3 hPa 0,0 l/m 0,0 km/h (0 Bft) SW 225 4,3 C 0,0 C 0,0 km/h (0 Bft)
08.04.2014 06:20 12,2 C 59 % 1017,3 hPa 0,0 l/m 0,0 km/h (0 Bft) SW 225 4,4 C 0,0 C 0,0 km/h (0 Bft)
08.04.2014 06:25 12,1 C 59 % 1017,3 hPa 0,0 l/m 0,0 km/h (0 Bft) SW 225 4,3 C 0,0 C 0,0 km/h (0 Bft)
08.04.2014 06:30 12,3 C 58 % 1017,3 hPa 0,0 l/m 0,0 km/h (0 Bft) SW 225 4,3 C 0,0 C 0,0 km/h (0 Bft)
08.04.2014 06:35 12,4 C 58 % 1017,3 hPa 0,0 l/m 0,0 km/h (0 Bft) SW 225 4,4 C 0,0 C 0,0 km/h (0 Bft)
08.04.2014 06:40 12,4 C 58 % 1017,3 hPa 0,0 l/m 0,0 km/h (0 Bft) SW 225 4,4 C 0,0 C 0,0 km/h (0 Bft)
08.04.2014 06:45 12,3 C 58 % 1017,3 hPa 0,0 l/m 0,0 km/h (0 Bft) SW 225 4,3 C 0,0 C 0,0 km/h (0 Bft)
08.04.2014 06:50 12,1 C 58 % 1017,3 hPa 0,0 l/m 0,0 km/h (0 Bft) SW 225 4,1 C 0,0 C 0,0 km/h (0 Bft)
08.04.2014 06:55 12,1 C 59 % 1017,3 hPa 0,0 l/m 0,0 km/h (0 Bft) SW 225 4,3 C 0,0 C 0,0 km/h (0 Bft)
08.04.2014 07:00 11,9 C 59 % 1017,3 hPa 0,0 l/m 0,0 km/h (0 Bft) SW 225 4,1 C 0,0 C 0,0 km/h (0 Bft)
08.04.2014 07:05 12,1 C 59 % 1017,3 hPa 0,0 l/m 0,0 km/h (0 Bft) SW 225 4,3 C 0,0 C 0,0 km/h (0 Bft)
08.04.2014 07:10 12,0 C 59 % 1017,5 hPa 0,0 l/m 0,0 km/h (0 Bft) SW 225 4,2 C 0,0 C 0,0 km/h (0 Bft)
08.04.2014 07:15 12,0 C 59 % 1017,5 hPa 0,0 l/m 0,0 km/h (0 Bft) SW 225 4,2 C 0,0 C 0,0 km/h (0 Bft)
08.04.2014 07:20 12,1 C 59 % 1017,5 hPa 0,0 l/m 0,0 km/h (0 Bft) SW 225 4,3 C 0,0 C 0,0 km/h (0 Bft)
08.04.2014 07:25 12,4 C 58 % 1017,5 hPa 0,0 l/m 0,0 km/h (0 Bft) SW 225 4,4 C 0,0 C 0,0 km/h (0 Bft)
08.04.2014 07:30 12,5 C 58 % 1017,5 hPa 0,0 l/m 0,0 km/h (0 Bft) SW 225 4,5 C 0,0 C 0,0 km/h (0 Bft)
08.04.2014 07:35 12,2 C 59 % 1017,5 hPa 0,0 l/m 0,0 km/h (0 Bft) SW 225 4,4 C 0,0 C 0,0 km/h (0 Bft)
08.04.2014 07:40 12,0 C 59 % 1017,5 hPa 0,0 l/m 0,0 km/h (0 Bft) SW 225 4,2 C 0,0 C 0,0 km/h (0 Bft)
08.04.2014 07:45 11,8 C 61 % 1017,5 hPa 0,0 l/m 0,0 km/h (0 Bft) SW 225 4,5 C 0,0 C 0,0 km/h (0 Bft)
08.04.2014 07:50 11,8 C 61 % 1017,4 hPa 0,0 l/m 0,0 km/h (0 Bft) SW 225 4,5 C 0,0 C 0,0 km/h (0 Bft)
08.04.2014 07:55 11,9 C 61 % 1017,4 hPa 0,0 l/m 0,0 km/h (0 Bft) SW 225 4,6 C 0,0 C 0,0 km/h (0 Bft)
08.04.2014 08:00 11,8 C 62 % 1017,4 hPa 0,0 l/m 0,0 km/h (0 Bft) SW 225 4,8 C 0,0 C 0,0 km/h (0 Bft)
08.04.2014 08:05 11,9 C 62 % 1017,4 hPa 0,0 l/m 0,0 km/h (0 Bft) SW 225 4,9 C 0,0 C 0,0 km/h (0 Bft)
08.04.2014 08:10 11,8 C 63 % 1017,4 hPa 0,0 l/m 0,0 km/h (0 Bft) SW 225 5,0 C 0,0 C 0,0 km/h (0 Bft)
08.04.2014 08:15 11,7 C 64 % 1017,4 hPa 0,0 l/m 0,0 km/h (0 Bft) SW 225 5,1 C 0,0 C 0,0 km/h (0 Bft)
08.04.2014 08:20 11,8 C 64 % 1017,4 hPa 0,0 l/m 0,0 km/h (0 Bft) SW 225 5,2 C 0,0 C 0,0 km/h (0 Bft)
08.04.2014 08:25 12,1 C 65 % 1017,4 hPa 0,0 l/m 0,0 km/h (0 Bft) SW 225 5,7 C 0,0 C 0,0 km/h (0 Bft)
08.04.2014 08:30 12,3 C 65 % 1017,5 hPa 0,0 l/m 0,0 km/h (0 Bft) SW 225 5,9 C 0,0 C 0,0 km/h (0 Bft)
08.04.2014 08:35 12,2 C 65 % 1017,5 hPa 0,0 l/m 0,0 km/h (0 Bft) SW 225 5,8 C 0,0 C 0,0 km/h (0 Bft)
08.04.2014 08:40 12,0 C 65 % 1017,5 hPa 0,0 l/m 0,0 km/h (0 Bft) SW 225 5,6 C 0,0 C 0,0 km/h (0 Bft)
08.04.2014 08:45 11,8 C 66 % 1017,5 hPa 0,0 l/m 0,0 km/h (0 Bft) SW 225 5,7 C 0,0 C 0,0 km/h (0 Bft)
08.04.2014 08:50 11,7 C 67 % 1017,8 hPa 0,0 l/m 0,0 km/h (0 Bft) SW 225 5,8 C 0,0 C 0,0 km/h (0 Bft)
08.04.2014 08:55 12,1 C 65 % 1017,8 hPa 0,0 l/m 0,0 km/h (0 Bft) SW 225 5,7 C 0,0 C 0,0 km/h (0 Bft)
08.04.2014 09:00 12,6 C 63 % 1017,8 hPa 0,0 l/m 0,0 km/h (0 Bft) SW 225 5,7 C 0,0 C 0,0 km/h (0 Bft)
08.04.2014 09:05 12,6 C 64 % 1017,8 hPa 0,0 l/m 0,0 km/h (0 Bft) SW 225 6,0 C 0,0 C 0,0 km/h (0 Bft)
08.04.2014 09:10 12,5 C 64 % 1018,6 hPa 0,0 l/m 0,0 km/h (0 Bft) SW 225 5,9 C 0,0 C 0,0 km/h (0 Bft)
08.04.2014 09:15 12,5 C 67 % 1018,6 hPa 0,0 l/m 0,0 km/h (0 Bft) SW 225 6,5 C 0,0 C 0,0 km/h (0 Bft)
08.04.2014 09:20 12,3 C 69 % 1018,6 hPa 0,0 l/m 0,0 km/h (0 Bft) SW 225 6,8 C 0,0 C 0,0 km/h (0 Bft)
08.04.2014 09:25 11,9 C 73 % 1018,6 hPa 0,0 l/m 0,0 km/h (0 Bft) SW 225 7,2 C 0,0 C 0,0 km/h (0 Bft)
08.04.2014 09:30 11,5 C 75 % 1019,1 hPa 0,0 l/m 0,0 km/h (0 Bft) SW 225 7,2 C 0,0 C 0,0 km/h (0 Bft)
08.04.2014 09:35 11,3 C 78 % 1019,1 hPa 0,0 l/m 0,0 km/h (0 Bft) SW 225 7,6 C 0,0 C 0,0 km/h (0 Bft)
08.04.2014 09:40 11,1 C 78 % 1019,1 hPa 0,0 l/m 0,0 km/h (0 Bft) SW 225 7,4 C 0,0 C 0,0 km/h (0 Bft)
08.04.2014 09:45 11,0 C 78 % 1019,1 hPa 0,0 l/m 0,0 km/h (0 Bft) SW 225 7,3 C 0,0 C 0,0 km/h (0 Bft)
08.04.2014 09:50 11,0 C 78 % 1019,3 hPa 0,0 l/m 0,0 km/h (0 Bft) SW 225 7,3 C 0,0 C 0,0 km/h (0 Bft)
08.04.2014 09:55 11,1 C 77 % 1019,3 hPa 0,0 l/m 0,0 km/h (0 Bft) SW 225 7,2 C 0,0 C 0,0 km/h (0 Bft)
08.04.2014 10:00 11,2 C 76 % 1019,3 hPa 0,0 l/m 0,0 km/h (0 Bft) SW 225 7,1 C 0,0 C 0,0 km/h (0 Bft)
08.04.2014 10:05 11,3 C 74 % 1019,3 hPa 0,0 l/m 0,0 km/h (0 Bft) SW 225 6,8 C 0,0 C 0,0 km/h (0 Bft)
08.04.2014 10:10 11,4 C 74 % 1019,1 hPa 0,0 l/m 0,0 km/h (0 Bft) SW 225 6,9 C 0,0 C 0,0 km/h (0 Bft)
08.04.2014 10:15 11,1 C 73 % 1019,1 hPa 0,0 l/m 0,0 km/h (0 Bft) SW 225 6,4 C 0,0 C 0,0 km/h (0 Bft)
08.04.2014 10:20 11,0 C 73 % 1019,1 hPa 0,0 l/m 0,0 km/h (0 Bft) SW 225 6,4 C 0,0 C 0,0 km/h (0 Bft)
08.04.2014 10:25 10,8 C 75 % 1019,1 hPa 0,0 l/m 0,0 km/h (0 Bft) SW 225 6,5 C 0,0 C 0,0 km/h (0 Bft)
08.04.2014 10:30 10,6 C 77 % 1019,4 hPa 0,0 l/m 0,0 km/h (0 Bft) SW 225 6,7 C 0,0 C 0,0 km/h (0 Bft)
08.04.2014 10:35 10,6 C 79 % 1019,4 hPa 0,0 l/m 0,0 km/h (0 Bft) SW 225 7,1 C 0,0 C 0,0 km/h (0 Bft)
08.04.2014 10:40 10,8 C 79 % 1019,4 hPa 0,0 l/m 0,0 km/h (0 Bft) SW 225 7,3 C 0,0 C 0,0 km/h (0 Bft)
08.04.2014 10:45 10,9 C 80 % 1019,4 hPa 0,0 l/m 0,0 km/h (0 Bft) SW 225 7,6 C 0,0 C 0,0 km/h (0 Bft)
08.04.2014 10:50 11,1 C 80 % 1019,8 hPa 0,0 l/m 0,0 km/h (0 Bft) SW 225 7,8 C 0,0 C 0,0 km/h (0 Bft)
08.04.2014 10:55 11,5 C 80 % 1019,8 hPa 0,0 l/m 0,0 km/h (0 Bft) SW 225 8,2 C 0,0 C 0,0 km/h (0 Bft)
08.04.2014 11:00 11,7 C 78 % 1019,8 hPa 0,0 l/m 0,0 km/h (0 Bft) SW 225 8,0 C 0,0 C 0,0 km/h (0 Bft)
08.04.2014 11:05 12,1 C 77 % 1019,8 hPa 0,0 l/m 0,0 km/h (0 Bft) SW 225 8,2 C 0,0 C 0,0 km/h (0 Bft)
08.04.2014 11:10 12,0 C 76 % 1020,1 hPa 0,0 l/m 0,0 km/h (0 Bft) SW 225 7,9 C 0,0 C 0,0 km/h (0 Bft)
08.04.2014 11:15 11,8 C 77 % 1020,1 hPa 0,0 l/m 0,0 km/h (0 Bft) SW 225 7,9 C 0,0 C 0,0 km/h (0 Bft)
08.04.2014 11:20 11,7 C 77 % 1020,1 hPa 0,0 l/m 0,0 km/h (0 Bft) SW 225 7,8 C 0,0 C 0,0 km/h (0 Bft)
08.04.2014 11:25 11,4 C 77 % 1020,1 hPa 0,0 l/m 0,0 km/h (0 Bft) SW 225 7,5 C 0,0 C 0,0 km/h (0 Bft)
08.04.2014 11:30 11,3 C 78 % 1020,2 hPa 0,0 l/m 0,0 km/h (0 Bft) SW 225 7,6 C 0,0 C 0,0 km/h (0 Bft)
08.04.2014 11:35 11,0 C 79 % 1020,2 hPa 0,0 l/m 0,0 km/h (0 Bft) SW 225 7,5 C 0,0 C 0,0 km/h (0 Bft)
08.04.2014 11:40 10,8 C 80 % 1020,2 hPa 0,0 l/m 0,0 km/h (0 Bft) SW 225 7,5 C 0,0 C 0,0 km/h (0 Bft)
08.04.2014 11:45 10,5 C 81 % 1020,2 hPa 0,0 l/m 0,0 km/h (0 Bft) SW 225 7,4 C 0,0 C 0,0 km/h (0 Bft)
08.04.2014 11:50 10,4 C 82 % 1019,9 hPa 0,0 l/m 0,0 km/h (0 Bft) SW 225 7,5 C 0,0 C 0,0 km/h (0 Bft)
08.04.2014 11:55 10,2 C 82 % 1019,9 hPa 0,0 l/m 0,0 km/h (0 Bft) SW 225 7,3 C 0,0 C 0,0 km/h (0 Bft)
08.04.2014 12:00 10,2 C 82 % 1019,9 hPa 0,0 l/m 0,0 km/h (0 Bft) SW 225 7,3 C 0,0 C 0,0 km/h (0 Bft)
08.04.2014 12:05 10,3 C 84 % 1019,9 hPa 0,0 l/m 0,0 km/h (0 Bft) SW 225 7,7 C 0,0 C 0,0 km/h (0 Bft)
08.04.2014 12:10 10,3 C 84 % 1020,1 hPa 0,0 l/m 0,0 km/h (0 Bft) SW 225 7,7 C 0,0 C 0,0 km/h (0 Bft)
08.04.2014 12:15 10,5 C 83 % 1020,1 hPa 0,0 l/m 0,0 km/h (0 Bft) SW 225 7,7 C 0,0 C 0,0 km/h (0 Bft)
08.04.2014 12:20 10,6 C 83 % 1020,1 hPa 0,0 l/m 0,0 km/h (0 Bft) SW 225 7,8 C 0,0 C 0,0 km/h (0 Bft)
08.04.2014 12:25 10,8 C 83 % 1020,1 hPa 0,0 l/m 0,0 km/h (0 Bft) SW 225 8,0 C 0,0 C 0,0 km/h (0 Bft)
08.04.2014 12:30 10,8 C 81 % 1020,3 hPa 0,0 l/m 0,0 km/h (0 Bft) SW 225 7,7 C 0,0 C 0,0 km/h (0 Bft)
08.04.2014 12:35 11,0 C 80 % 1020,3 hPa 0,0 l/m 0,0 km/h (0 Bft) SW 225 7,7 C 0,0 C 0,0 km/h (0 Bft)
08.04.2014 12:40 11,0 C 78 % 1020,3 hPa 0,0 l/m 0,0 km/h (0 Bft) SW 225 7,3 C 0,0 C 0,0 km/h (0 Bft)
08.04.2014 12:45 10,9 C 78 % 1020,3 hPa 0,0 l/m 0,0 km/h (0 Bft) SW 225 7,2 C 0,0 C 0,0 km/h (0 Bft)
08.04.2014 12:50 10,9 C 79 % 1020,2 hPa 0,0 l/m 0,0 km/h (0 Bft) SW 225 7,4 C 0,0 C 0,0 km/h (0 Bft)
08.04.2014 12:55 11,0 C 81 % 1020,2 hPa 0,0 l/m 0,0 km/h (0 Bft) SW 225 7,9 C 0,0 C 0,0 km/h (0 Bft)
08.04.2014 13:00 11,0 C 79 % 1020,2 hPa 0,0 l/m 0,0 km/h (0 Bft) SW 225 7,5 C 0,0 C 0,0 km/h (0 Bft)
08.04.2014 13:05 11,1 C 79 % 1020,2 hPa 0,0 l/m 0,0 km/h (0 Bft) SW 225 7,6 C 0,0 C 0,0 km/h (0 Bft)
08.04.2014 13:10 11,1 C 79 % 1020,4 hPa 0,0 l/m 0,0 km/h (0 Bft) SW 225 7,6 C 0,0 C 0,0 km/h (0 Bft)
08.04.2014 13:15 11,3 C 79 % 1020,4 hPa 0,0 l/m 0,0 km/h (0 Bft) SW 225 7,8 C 0,0 C 0,0 km/h (0 Bft)
08.04.2014 13:20 11,5 C 79 % 1020,4 hPa 0,0 l/m 0,0 km/h (0 Bft) SW 225 8,0 C 0,0 C 0,0 km/h (0 Bft)
08.04.2014 13:25 11,5 C 79 % 1020,4 hPa 0,0 l/m 0,0 km/h (0 Bft) SW 225 8,0 C 0,0 C 0,0 km/h (0 Bft)
08.04.2014 13:30 11,3 C 76 % 1020,4 hPa 0,0 l/m 0,0 km/h (0 Bft) SW 225 7,2 C 0,0 C 0,0 km/h (0 Bft)
08.04.2014 13:35 11,6 C 78 % 1020,4 hPa 0,0 l/m 0,0 km/h (0 Bft) SW 225 7,9 C 0,0 C 0,0 km/h (0 Bft)
08.04.2014 13:40 11,5 C 76 % 1020,4 hPa 0,0 l/m 0,0 km/h (0 Bft) SW 225 7,4 C 0,0 C 0,0 km/h (0 Bft)
08.04.2014 13:45 11,4 C 74 % 1020,4 hPa 0,0 l/m 0,0 km/h (0 Bft) SW 225 6,9 C 0,0 C 0,0 km/h (0 Bft)
08.04.2014 13:50 11,4 C 74 % 1020,4 hPa 0,0 l/m 0,0 km/h (0 Bft) SW 225 6,9 C 0,0 C 0,0 km/h (0 Bft)
08.04.2014 13:55 11,4 C 73 % 1020,4 hPa 0,0 l/m 0,0 km/h (0 Bft) SW 225 6,7 C 0,0 C 0,0 km/h (0 Bft)
08.04.2014 14:00 11,3 C 73 % 1020,4 hPa 0,0 l/m 0,0 km/h (0 Bft) SW 225 6,6 C 0,0 C 0,0 km/h (0 Bft)
08.04.2014 14:05 11,5 C 72 % 1020,4 hPa 0,0 l/m 0,0 km/h (0 Bft) SW 225 6,6 C 0,0 C 0,0 km/h (0 Bft)
08.04.2014 14:10 11,6 C 71 % 1020,2 hPa 0,0 l/m 0,0 km/h (0 Bft) SW 225 6,5 C 0,0 C 0,0 km/h (0 Bft)
08.04.2014 14:15 11,6 C 70 % 1020,2 hPa 0,0 l/m 0,0 km/h (0 Bft) SW 225 6,3 C 0,0 C 0,0 km/h (0 Bft)
08.04.2014 14:20 11,9 C 71 % 1020,2 hPa 0,0 l/m 0,0 km/h (0 Bft) SW 225 6,8 C 0,0 C 0,0 km/h (0 Bft)
08.04.2014 14:25 11,8 C 69 % 1020,2 hPa 0,0 l/m 0,0 km/h (0 Bft) SW 225 6,3 C 0,0 C 0,0 km/h (0 Bft)
08.04.2014 14:30 11,7 C 69 % 1020,2 hPa 0,0 l/m 0,0 km/h (0 Bft) SW 225 6,2 C 0,0 C 0,0 km/h (0 Bft)
08.04.2014 14:35 11,5 C 69 % 1020,2 hPa 0,0 l/m 0,0 km/h (0 Bft) SW 225 6,0 C 0,0 C 0,0 km/h (0 Bft)
08.04.2014 14:38 11,3 C 70 % 1020,2 hPa 0,0 l/m 0,0 km/h (0 Bft) SW 225 6,0 C 0,0 C 0,0 km/h (0 Bft)
08.04.2014 14:40 11,3 C 70 % 1020,2 hPa 0,0 l/m 0,0 km/h (0 Bft) SW 225 6,0 C 0,0 C 0,0 km/h (0 Bft)
08.04.2014 14:45 11,2 C 71 % 1020,2 hPa 0,0 l/m 0,0 km/h (0 Bft) SW 225 6,1 C 0,0 C 0,0 km/h (0 Bft)
08.04.2014 14:50 11,4 C 72 % 1019,8 hPa 0,0 l/m 0,0 km/h (0 Bft) SW 225 6,5 C 0,0 C 0,0 km/h (0 Bft)
08.04.2014 14:55 11,6 C 70 % 1019,8 hPa 0,0 l/m 0,0 km/h (0 Bft) SW 225 6,3 C 0,0 C 0,0 km/h (0 Bft)
08.04.2014 15:00 11,6 C 71 % 1019,8 hPa 0,0 l/m 0,0 km/h (0 Bft) SW 225 6,5 C 0,0 C 0,0 km/h (0 Bft)
08.04.2014 15:05 11,5 C 71 % 1019,8 hPa 0,0 l/m 0,0 km/h (0 Bft) SW 225 6,4 C 0,0 C 0,0 km/h (0 Bft)
08.04.2014 15:10 11,6 C 71 % 1019,7 hPa 0,0 l/m 0,0 km/h (0 Bft) SW 225 6,5 C 0,0 C 0,0 km/h (0 Bft)
08.04.2014 15:15 11,6 C 71 % 1019,7 hPa 0,0 l/m 0,0 km/h (0 Bft) SW 225 6,5 C 0,0 C 0,0 km/h (0 Bft)
08.04.2014 15:20 11,6 C 71 % 1019,7 hPa 0,0 l/m 0,0 km/h (0 Bft) SW 225 6,5 C 0,0 C 0,0 km/h (0 Bft)
08.04.2014 15:25 11,6 C 71 % 1019,7 hPa 0,0 l/m 0,0 km/h (0 Bft) SW 225 6,5 C 0,0 C 0,0 km/h (0 Bft)
08.04.2014 15:30 11,6 C 71 % 1020,1 hPa 0,0 l/m 0,0 km/h (0 Bft) SW 225 6,5 C 0,0 C 0,0 km/h (0 Bft)
08.04.2014 15:35 11,3 C 71 % 1020,1 hPa 0,0 l/m 0,0 km/h (0 Bft) SW 225 6,2 C 0,0 C 0,0 km/h (0 Bft)
08.04.2014 15:40 11,3 C 71 % 1020,1 hPa 0,0 l/m 0,0 km/h (0 Bft) SW 225 6,2 C 0,0 C 0,0 km/h (0 Bft)
08.04.2014 15:45 11,1 C 72 % 1020,1 hPa 0,0 l/m 0,0 km/h (0 Bft) SW 225 6,2 C 0,0 C 0,0 km/h (0 Bft)
08.04.2014 15:50 11,3 C 73 % 1019,7 hPa 0,0 l/m 0,0 km/h (0 Bft) SW 225 6,6 C 0,0 C 0,0 km/h (0 Bft)
08.04.2014 15:55 11,1 C 74 % 1019,7 hPa 0,0 l/m 0,0 km/h (0 Bft) SW 225 6,6 C 0,0 C 0,0 km/h (0 Bft)
08.04.2014 16:00 10,9 C 75 % 1019,7 hPa 0,0 l/m 0,0 km/h (0 Bft) SW 225 6,6 C 0,0 C 0,0 km/h (0 Bft)
08.04.2014 16:05 10,6 C 77 % 1019,7 hPa 0,0 l/m 0,0 km/h (0 Bft) SW 225 6,7 C 0,0 C 0,0 km/h (0 Bft)
08.04.2014 16:10 10,9 C 78 % 1019,5 hPa 0,0 l/m 0,0 km/h (0 Bft) SW 225 7,2 C 0,0 C 0,0 km/h (0 Bft)
08.04.2014 16:15 10,7 C 78 % 1019,5 hPa 0,0 l/m 0,0 km/h (0 Bft) SW 225 7,0 C 0,0 C 0,0 km/h (0 Bft)
08.04.2014 16:20 10,4 C 78 % 1019,5 hPa 0,0 l/m 0,0 km/h (0 Bft) SW 225 6,7 C 0,0 C 0,0 km/h (0 Bft)
08.04.2014 16:25 10,2 C 78 % 1019,5 hPa 0,0 l/m 0,0 km/h (0 Bft) SW 225 6,5 C 0,0 C 0,0 km/h (0 Bft)
08.04.2014 16:30 10,1 C 78 % 1019,6 hPa 0,0 l/m 0,0 km/h (0 Bft) SW 225 6,4 C 0,0 C 0,0 km/h (0 Bft)
08.04.2014 16:35 10,1 C 78 % 1019,6 hPa 0,0 l/m 0,0 km/h (0 Bft) SW 225 6,4 C 0,0 C 0,0 km/h (0 Bft)
08.04.2014 16:40 10,2 C 78 % 1019,6 hPa 0,0 l/m 0,0 km/h (0 Bft) SW 225 6,5 C 0,0 C 0,0 km/h (0 Bft)
08.04.2014 16:45 10,2 C 77 % 1019,6 hPa 0,0 l/m 0,0 km/h (0 Bft) SW 225 6,4 C 0,0 C 0,0 km/h (0 Bft)
08.04.2014 16:50 10,2 C 76 % 1019,2 hPa 0,0 l/m 0,0 km/h (0 Bft) SW 225 6,2 C 0,0 C 0,0 km/h (0 Bft)
08.04.2014 16:55 10,2 C 77 % 1019,2 hPa 0,0 l/m 0,0 km/h (0 Bft) SW 225 6,4 C 0,0 C 0,0 km/h (0 Bft)
08.04.2014 17:00 10,2 C 76 % 1019,2 hPa 0,0 l/m 0,0 km/h (0 Bft) SW 225 6,2 C 0,0 C 0,0 km/h (0 Bft)
08.04.2014 17:05 10,2 C 76 % 1019,2 hPa 0,0 l/m 0,0 km/h (0 Bft) SW 225 6,2 C 0,0 C 0,0 km/h (0 Bft)
08.04.2014 17:10 10,3 C 75 % 1019,2 hPa 0,0 l/m 0,0 km/h (0 Bft) SW 225 6,1 C 0,0 C 0,0 km/h (0 Bft)
08.04.2014 17:15 10,2 C 75 % 1019,2 hPa 0,0 l/m 0,0 km/h (0 Bft) SW 225 6,0 C 0,0 C 0,0 km/h (0 Bft)
08.04.2014 17:20 10,2 C 76 % 1019,2 hPa 0,0 l/m 0,0 km/h (0 Bft) SW 225 6,2 C 0,0 C 0,0 km/h (0 Bft)
08.04.2014 17:25 10,1 C 76 % 1019,2 hPa 0,0 l/m 0,0 km/h (0 Bft) SW 225 6,1 C 0,0 C 0,0 km/h (0 Bft)
08.04.2014 17:30 10,0 C 76 % 1019,2 hPa 0,0 l/m 0,0 km/h (0 Bft) SW 225 6,0 C 0,0 C 0,0 km/h (0 Bft)
08.04.2014 17:35 9,9 C 76 % 1019,2 hPa 0,0 l/m 0,0 km/h (0 Bft) SW 225 5,9 C 0,0 C 0,0 km/h (0 Bft)
08.04.2014 17:40 9,8 C 77 % 1019,2 hPa 0,0 l/m 0,0 km/h (0 Bft) SW 225 6,0 C 0,0 C 0,0 km/h (0 Bft)
08.04.2014 17:45 9,7 C 78 % 1019,2 hPa 0,0 l/m 0,0 km/h (0 Bft) SW 225 6,1 C 0,0 C 0,0 km/h (0 Bft)
08.04.2014 17:50 9,7 C 77 % 1019,4 hPa 0,0 l/m 0,0 km/h (0 Bft) SW 225 5,9 C 0,0 C 0,0 km/h (0 Bft)
08.04.2014 17:55 9,4 C 77 % 1019,4 hPa 0,0 l/m 0,0 km/h (0 Bft) SW 225 5,6 C 0,0 C 0,0 km/h (0 Bft)
08.04.2014 18:00 9,2 C 76 % 1019,4 hPa 0,0 l/m 0,0 km/h (0 Bft) SW 225 5,2 C 0,0 C 0,0 km/h (0 Bft)
08.04.2014 18:05 8,9 C 77 % 1019,4 hPa 0,0 l/m 0,0 km/h (0 Bft) SW 225 5,1 C 0,0 C 0,0 km/h (0 Bft)
08.04.2014 18:10 8,8 C 75 % 1019,7 hPa 0,0 l/m 0,0 km/h (0 Bft) SW 225 4,6 C 0,0 C 0,0 km/h (0 Bft)
08.04.2014 18:15 8,8 C 75 % 1019,7 hPa 0,0 l/m 0,0 km/h (0 Bft) SW 225 4,6 C 0,0 C 0,0 km/h (0 Bft)
08.04.2014 18:20 8,8 C 74 % 1019,7 hPa 0,0 l/m 0,0 km/h (0 Bft) SW 225 4,4 C 0,0 C 0,0 km/h (0 Bft)
08.04.2014 18:25 8,8 C 72 % 1019,7 hPa 0,0 l/m 0,0 km/h (0 Bft) SW 225 4,0 C 0,0 C 0,0 km/h (0 Bft)
08.04.2014 18:30 8,7 C 72 % 1019,6 hPa 0,0 l/m 0,0 km/h (0 Bft) SW 225 3,9 C 0,0 C 0,0 km/h (0 Bft)
08.04.2014 18:35 8,7 C 71 % 1019,6 hPa 0,0 l/m 0,0 km/h (0 Bft) SW 225 3,7 C 0,0 C 0,0 km/h (0 Bft)
08.04.2014 18:40 8,7 C 71 % 1019,6 hPa 0,0 l/m 0,0 km/h (0 Bft) SW 225 3,7 C 0,0 C 0,0 km/h (0 Bft)
08.04.2014 18:45 8,8 C 70 % 1019,6 hPa 0,0 l/m 0,0 km/h (0 Bft) SW 225 3,6 C 0,0 C 0,0 km/h (0 Bft)
08.04.2014 18:50 9,1 C 70 % 1019,6 hPa 0,0 l/m 0,0 km/h (0 Bft) SW 225 3,9 C 0,0 C 0,0 km/h (0 Bft)
08.04.2014 18:55 9,2 C 69 % 1019,6 hPa 0,0 l/m 0,0 km/h (0 Bft) SW 225 3,8 C 0,0 C 0,0 km/h (0 Bft)
08.04.2014 19:00 8,8 C 70 % 1019,6 hPa 0,0 l/m 0,0 km/h (0 Bft) SW 225 3,6 C 0,0 C 0,0 km/h (0 Bft)
08.04.2014 19:05 8,6 C 70 % 1019,6 hPa 0,0 l/m 0,0 km/h (0 Bft) SW 225 3,4 C 0,0 C 0,0 km/h (0 Bft)
08.04.2014 19:10 8,7 C 70 % 1019,7 hPa 0,0 l/m 0,0 km/h (0 Bft) SW 225 3,5 C 0,0 C 0,0 km/h (0 Bft)
08.04.2014 19:15 8,7 C 68 % 1019,7 hPa 0,0 l/m 0,0 km/h (0 Bft) SW 225 3,1 C 0,0 C 0,0 km/h (0 Bft)
08.04.2014 19:20 8,7 C 68 % 1019,7 hPa 0,0 l/m 0,0 km/h (0 Bft) SW 225 3,1 C 0,0 C 0,0 km/h (0 Bft)
08.04.2014 19:25 8,6 C 68 % 1019,7 hPa 0,0 l/m 0,0 km/h (0 Bft) SW 225 3,0 C 0,0 C 0,0 km/h (0 Bft)
08.04.2014 19:30 8,5 C 68 % 1020,0 hPa 0,0 l/m 0,0 km/h (0 Bft) SW 225 2,9 C 0,0 C 0,0 km/h (0 Bft)
08.04.2014 19:35 8,7 C 67 % 1020,0 hPa 0,0 l/m 0,0 km/h (0 Bft) SW 225 2,9 C 0,0 C 0,0 km/h (0 Bft)
08.04.2014 19:39 8,7 C 66 % 1020,0 hPa 0,0 l/m 0,0 km/h (0 Bft) SW 225 2,7 C 0,0 C 0,0 km/h (0 Bft)
08.04.2014 19:40 8,7 C 66 % 1020,0 hPa 0,0 l/m 0,0 km/h (0 Bft) SW 225 2,7 C 0,0 C 0,0 km/h (0 Bft)
08.04.2014 19:45 8,4 C 66 % 1020,0 hPa 0,0 l/m 0,0 km/h (0 Bft) SW 225 2,4 C 0,0 C 0,0 km/h (0 Bft)
08.04.2014 19:50 8,2 C 66 % 1020,2 hPa 0,0 l/m 0,0 km/h (0 Bft) SW 225 2,2 C 0,0 C 0,0 km/h (0 Bft)
08.04.2014 19:55 8,4 C 66 % 1020,2 hPa 0,0 l/m 0,0 km/h (0 Bft) SW 225 2,4 C 0,0 C 0,0 km/h (0 Bft)
08.04.2014 20:00 8,5 C 65 % 1020,2 hPa 0,0 l/m 0,0 km/h (0 Bft) SW 225 2,3 C 0,0 C 0,0 km/h (0 Bft)
08.04.2014 20:05 8,1 C 65 % 1020,2 hPa 0,0 l/m 0,0 km/h (0 Bft) SW 225 1,9 C 0,0 C 0,0 km/h (0 Bft)
08.04.2014 20:10 8,0 C 65 % 1020,4 hPa 0,0 l/m 0,0 km/h (0 Bft) SW 225 1,8 C 0,0 C 0,0 km/h (0 Bft)
08.04.2014 20:15 7,9 C 64 % 1020,4 hPa 0,0 l/m 0,0 km/h (0 Bft) SW 225 1,5 C 0,0 C 0,0 km/h (0 Bft)
08.04.2014 20:20 8,1 C 63 % 1020,4 hPa 0,0 l/m 0,0 km/h (0 Bft) SW 225 1,5 C 0,0 C 0,0 km/h (0 Bft)
08.04.2014 20:25 8,1 C 63 % 1020,4 hPa 0,0 l/m 0,0 km/h (0 Bft) SW 225 1,5 C 0,0 C 0,0 km/h (0 Bft)
08.04.2014 20:30 8,1 C 63 % 1020,6 hPa 0,0 l/m 0,0 km/h (0 Bft) SW 225 1,5 C 0,0 C 0,0 km/h (0 Bft)
08.04.2014 20:35 7,9 C 64 % 1020,6 hPa 0,0 l/m 0,0 km/h (0 Bft) SW 225 1,5 C 0,0 C 0,0 km/h (0 Bft)
08.04.2014 20:40 7,8 C 64 % 1020,6 hPa 0,0 l/m 0,0 km/h (0 Bft) SW 225 1,4 C 0,0 C 0,0 km/h (0 Bft)
08.04.2014 20:45 7,5 C 64 % 1020,6 hPa 0,0 l/m 0,0 km/h (0 Bft) SW 225 1,1 C 0,0 C 0,0 km/h (0 Bft)
08.04.2014 20:50 7,5 C 64 % 1020,7 hPa 0,0 l/m 0,0 km/h (0 Bft) SW 225 1,1 C 0,0 C 0,0 km/h (0 Bft)
08.04.2014 20:55 7,6 C 62 % 1020,7 hPa 0,0 l/m 0,0 km/h (0 Bft) SW 225 0,8 C 0,0 C 0,0 km/h (0 Bft)
08.04.2014 21:00 7,4 C 63 % 1020,7 hPa 0,0 l/m 0,0 km/h (0 Bft) SW 225 0,8 C 0,0 C 0,0 km/h (0 Bft)
08.04.2014 21:05 7,4 C 63 % 1020,7 hPa 0,0 l/m 0,0 km/h (0 Bft) SW 225 0,8 C 0,0 C 0,0 km/h (0 Bft)
08.04.2014 21:07 7,6 C 63 % 1020,9 hPa 0,0 l/m 0,0 km/h (0 Bft) SW 225 1,0 C 0,0 C 0,0 km/h (0 Bft)
08.04.2014 21:10 7,4 C 64 % 1020,9 hPa 0,0 l/m 0,0 km/h (0 Bft) SW 225 1,0 C 0,0 C 0,0 km/h (0 Bft)
08.04.2014 21:15 7,5 C 64 % 1020,9 hPa 0,0 l/m 0,0 km/h (0 Bft) SW 225 1,1 C 0,0 C 0,0 km/h (0 Bft)
08.04.2014 21:20 7,6 C 65 % 1020,9 hPa 0,0 l/m 0,0 km/h (0 Bft) SW 225 1,5 C 0,0 C 0,0 km/h (0 Bft)
08.04.2014 21:25 7,8 C 65 % 1021,2 hPa 0,0 l/m 0,0 km/h (0 Bft) SW 225 1,6 C 0,0 C 0,0 km/h (0 Bft)
08.04.2014 21:30 8,0 C 65 % 1021,2 hPa 0,0 l/m 0,0 km/h (0 Bft) SW 225 1,8 C 0,0 C 0,0 km/h (0 Bft)
08.04.2014 21:35 8,0 C 65 % 1021,2 hPa 0,0 l/m 0,0 km/h (0 Bft) SW 225 1,8 C 0,0 C 0,0 km/h (0 Bft)
08.04.2014 21:40 8,1 C 65 % 1021,2 hPa 0,0 l/m 0,0 km/h (0 Bft) SW 225 1,9 C 0,0 C 0,0 km/h (0 Bft)
08.04.2014 21:45 8,1 C 66 % 1021,5 hPa 0,0 l/m 0,0 km/h (0 Bft) SW 225 2,1 C 0,0 C 0,0 km/h (0 Bft)
08.04.2014 21:50 8,2 C 66 % 1021,5 hPa 0,0 l/m 0,0 km/h (0 Bft) SW 225 2,2 C 0,0 C 0,0 km/h (0 Bft)
08.04.2014 21:55 8,1 C 66 % 1021,5 hPa 0,0 l/m 0,0 km/h (0 Bft) SW 225 2,1 C 0,0 C 0,0 km/h (0 Bft)
08.04.2014 22:00 8,2 C 67 % 1021,5 hPa 0,0 l/m 0,0 km/h (0 Bft) SW 225 2,4 C 0,0 C 0,0 km/h (0 Bft)
08.04.2014 22:05 8,2 C 67 % 1021,7 hPa 0,0 l/m 0,0 km/h (0 Bft) SW 225 2,4 C 0,0 C 0,0 km/h (0 Bft)
08.04.2014 22:10 8,2 C 68 % 1021,7 hPa 0,0 l/m 0,0 km/h (0 Bft) SW 225 2,7 C 0,0 C 0,0 km/h (0 Bft)
08.04.2014 22:15 8,2 C 68 % 1021,7 hPa 0,0 l/m 0,0 km/h (0 Bft) SW 225 2,7 C 0,0 C 0,0 km/h (0 Bft)
08.04.2014 22:20 8,1 C 69 % 1021,7 hPa 0,0 l/m 0,0 km/h (0 Bft) SW 225 2,8 C 0,0 C 0,0 km/h (0 Bft)
08.04.2014 22:25 8,1 C 69 % 1021,8 hPa 0,0 l/m 0,0 km/h (0 Bft) SW 225 2,8 C 0,0 C 0,0 km/h (0 Bft)
08.04.2014 22:30 8,0 C 70 % 1021,8 hPa 0,0 l/m 0,0 km/h (0 Bft) SW 225 2,9 C 0,0 C 0,0 km/h (0 Bft)
08.04.2014 22:35 8,0 C 70 % 1021,8 hPa 0,0 l/m 0,0 km/h (0 Bft) SW 225 2,9 C 0,0 C 0,0 km/h (0 Bft)
08.04.2014 22:40 7,9 C 70 % 1021,8 hPa 0,0 l/m 0,0 km/h (0 Bft) SW 225 2,8 C 0,0 C 0,0 km/h (0 Bft)
08.04.2014 22:45 7,9 C 71 % 1021,8 hPa 0,0 l/m 0,0 km/h (0 Bft) SW 225 3,0 C 0,0 C 0,0 km/h (0 Bft)
08.04.2014 22:50 7,8 C 72 % 1021,8 hPa 0,0 l/m 0,0 km/h (0 Bft) SW 225 3,1 C 0,0 C 0,0 km/h (0 Bft)
08.04.2014 22:55 7,8 C 71 % 1021,8 hPa 0,0 l/m 0,0 km/h (0 Bft) SW 225 2,9 C 0,0 C 0,0 km/h (0 Bft)
08.04.2014 23:00 7,7 C 70 % 1021,8 hPa 0,0 l/m 0,0 km/h (0 Bft) SW 225 2,6 C 0,0 C 0,0 km/h (0 Bft)
08.04.2014 23:05 7,6 C 69 % 1022,3 hPa 0,0 l/m 0,0 km/h (0 Bft) SW 225 2,3 C 0,0 C 0,0 km/h (0 Bft)
08.04.2014 23:10 7,4 C 69 % 1022,3 hPa 0,0 l/m 0,0 km/h (0 Bft) SW 225 2,1 C 0,0 C 0,0 km/h (0 Bft)
08.04.2014 23:15 7,4 C 69 % 1022,3 hPa 0,0 l/m 0,0 km/h (0 Bft) SW 225 2,1 C 0,0 C 0,0 km/h (0 Bft)
08.04.2014 23:20 7,3 C 69 % 1022,3 hPa 0,0 l/m 0,0 km/h (0 Bft) SW 225 2,0 C 0,0 C 0,0 km/h (0 Bft)
08.04.2014 23:25 7,2 C 70 % 1022,2 hPa 0,0 l/m 0,0 km/h (0 Bft) SW 225 2,1 C 0,0 C 0,0 km/h (0 Bft)
08.04.2014 23:30 6,9 C 71 % 1022,2 hPa 0,0 l/m 0,0 km/h (0 Bft) SW 225 2,0 C 0,0 C 0,0 km/h (0 Bft)
08.04.2014 23:35 6,9 C 71 % 1022,2 hPa 0,0 l/m 0,0 km/h (0 Bft) SW 225 2,0 C 0,0 C 0,0 km/h (0 Bft)
08.04.2014 23:40 6,9 C 71 % 1022,2 hPa 0,0 l/m 0,0 km/h (0 Bft) SW 225 2,0 C 0,0 C 0,0 km/h (0 Bft)
08.04.2014 23:45 7,0 C 70 % 1022,7 hPa 0,0 l/m 0,0 km/h (0 Bft) SW 225 1,9 C 0,0 C 0,0 km/h (0 Bft)
08.04.2014 23:50 6,9 C 69 % 1022,7 hPa 0,0 l/m 0,0 km/h (0 Bft) SW 225 1,6 C 0,0 C 0,0 km/h (0 Bft)
08.04.2014 23:55 6,9 C 68 % 1022,7 hPa 0,0 l/m 0,0 km/h (0 Bft) SW 225 1,4 C 0,0 C 0,0 km/h (0 Bft)
_ Min-Zeit 04:25 07:30 05:25 - 23:55 - - 20:55 23:55 23:55
Minimum _ 6,6 C 58 % 1016,9 hPa - 0,0 km/h (0 Bft) - - 0,8 C 0,0 C 0,0 km/h (0 Bft)
_ Max-Zeit 09:05 12:10 23:55 23:55 23:55 - - 11:05 23:55 23:55
Maximum _ 12,6 C 84 % 1022,7 hPa 0,0 l/m 0,0 km/h
SW (0 Bft)
- - 8,2 C 0,0 C 0,0 km/h
SW (0 Bft)
Durchschnitt _ 9,6 C 73 % 1019,1 hPa #0,0 l/m 0,0 km/h (0 Bft) - - - 4,9 C 0,0 C 0,0 km/h (0 Bft)